Year,Month,Day,Hour,Minute,Value (Times are PST for temperature in C)
2017,06,23,00,00,11.40
2017,06,23,00,01,11.40
2017,06,23,00,02,11.40
2017,06,23,00,03,11.40
2017,06,23,00,04,11.40
2017,06,23,00,05,11.40
2017,06,23,00,06,11.40
2017,06,23,00,07,11.40
2017,06,23,00,08,11.40
2017,06,23,00,09,11.30
2017,06,23,00,10,11.30
2017,06,23,00,11,11.30
2017,06,23,00,12,11.30
2017,06,23,00,13,11.30
2017,06,23,00,14,11.30
2017,06,23,00,15,11.30
2017,06,23,00,16,11.30
2017,06,23,00,17,11.20
2017,06,23,00,18,11.20
2017,06,23,00,19,11.20
2017,06,23,00,20,11.20
2017,06,23,00,21,11.20
2017,06,23,00,22,11.20
2017,06,23,00,23,11.20
2017,06,23,00,24,11.20
2017,06,23,00,25,11.20
2017,06,23,00,26,11.20
2017,06,23,00,27,11.30
2017,06,23,00,28,11.30
2017,06,23,00,29,11.30
2017,06,23,00,30,11.30
2017,06,23,00,31,11.30
2017,06,23,00,32,11.30
2017,06,23,00,33,11.30
2017,06,23,00,34,11.30
2017,06,23,00,35,11.30
2017,06,23,00,36,11.30
2017,06,23,00,37,11.30
2017,06,23,00,38,11.30
2017,06,23,00,39,11.30
2017,06,23,00,40,11.20
2017,06,23,00,41,11.20
2017,06,23,00,42,11.20
2017,06,23,00,43,11.10
2017,06,23,00,44,11.10
2017,06,23,00,45,11.10
2017,06,23,00,46,11.10
2017,06,23,00,47,11.10
2017,06,23,00,48,11.10
2017,06,23,00,49,11.10
2017,06,23,00,50,11.10
2017,06,23,00,51,11.10
2017,06,23,00,52,11.10
2017,06,23,00,53,11.10
2017,06,23,00,54,11.10
2017,06,23,00,55,11.20
2017,06,23,00,56,11.20
2017,06,23,00,57,11.30
2017,06,23,00,58,11.30
2017,06,23,00,59,11.30
2017,06,23,01,00,11.30
2017,06,23,01,01,11.30
2017,06,23,01,02,11.30
2017,06,23,01,03,11.30
2017,06,23,01,04,11.30
2017,06,23,01,05,11.20
2017,06,23,01,06,11.20
2017,06,23,01,07,11.20
2017,06,23,01,08,11.20
2017,06,23,01,09,11.20
2017,06,23,01,10,11.30
2017,06,23,01,11,11.30
2017,06,23,01,12,11.30
2017,06,23,01,13,11.30
2017,06,23,01,14,11.30
2017,06,23,01,15,11.40
2017,06,23,01,16,11.40
2017,06,23,01,17,11.40
2017,06,23,01,18,11.40
2017,06,23,01,19,11.40
2017,06,23,01,20,11.40
2017,06,23,01,21,11.40
2017,06,23,01,22,11.40
2017,06,23,01,23,11.40
2017,06,23,01,24,11.40
2017,06,23,01,25,11.40
2017,06,23,01,26,11.40
2017,06,23,01,27,11.40
2017,06,23,01,28,11.40
2017,06,23,01,29,11.40
2017,06,23,01,30,11.40
2017,06,23,01,31,11.40
2017,06,23,01,32,11.40
2017,06,23,01,33,11.40
2017,06,23,01,34,11.40
2017,06,23,01,35,11.40
2017,06,23,01,36,11.40
2017,06,23,01,37,11.40
2017,06,23,01,38,11.40
2017,06,23,01,39,11.40
2017,06,23,01,40,11.50
2017,06,23,01,41,11.60
2017,06,23,01,42,11.60
2017,06,23,01,43,11.60
2017,06,23,01,44,11.60
2017,06,23,01,45,11.60
2017,06,23,01,46,11.60
2017,06,23,01,47,11.60
2017,06,23,01,48,11.60
2017,06,23,01,49,11.70
2017,06,23,01,50,11.70
2017,06,23,01,51,11.80
2017,06,23,01,52,11.80
2017,06,23,01,53,11.80
2017,06,23,01,54,11.80
2017,06,23,01,55,11.80
2017,06,23,01,56,11.80
2017,06,23,01,57,11.80
2017,06,23,01,58,11.80
2017,06,23,01,59,11.80
2017,06,23,02,00,11.80
2017,06,23,02,01,11.80
2017,06,23,02,02,11.80
2017,06,23,02,03,11.80
2017,06,23,02,04,11.80
2017,06,23,02,05,11.80
2017,06,23,02,06,11.80
2017,06,23,02,07,11.80
2017,06,23,02,08,11.80
2017,06,23,02,09,11.80
2017,06,23,02,10,11.70
2017,06,23,02,11,11.70
2017,06,23,02,12,11.70
2017,06,23,02,13,11.70
2017,06,23,02,14,11.80
2017,06,23,02,15,11.80
2017,06,23,02,16,11.80
2017,06,23,02,17,11.80
2017,06,23,02,18,11.80
2017,06,23,02,19,11.80
2017,06,23,02,20,11.80
2017,06,23,02,21,11.80
2017,06,23,02,22,11.80
2017,06,23,02,23,11.80
2017,06,23,02,24,11.80
2017,06,23,02,25,11.80
2017,06,23,02,26,11.80
2017,06,23,02,27,11.80
2017,06,23,02,28,11.80
2017,06,23,02,29,11.80
2017,06,23,02,30,11.80
2017,06,23,02,31,11.80
2017,06,23,02,32,11.80
2017,06,23,02,33,11.80
2017,06,23,02,34,11.80
2017,06,23,02,35,11.80
2017,06,23,02,36,11.80
2017,06,23,02,37,11.80
2017,06,23,02,38,11.80
2017,06,23,02,39,11.80
2017,06,23,02,40,11.80
2017,06,23,02,41,11.80
2017,06,23,02,42,11.80
2017,06,23,02,43,11.80
2017,06,23,02,44,11.80
2017,06,23,02,45,11.80
2017,06,23,02,46,11.80
2017,06,23,02,47,11.80
2017,06,23,02,48,11.80
2017,06,23,02,49,11.80
2017,06,23,02,50,11.80
2017,06,23,02,51,11.80
2017,06,23,02,52,11.70
2017,06,23,02,53,11.70
2017,06,23,02,54,11.70
2017,06,23,02,55,11.60
2017,06,23,02,56,11.60
2017,06,23,02,57,11.60
2017,06,23,02,58,11.60
2017,06,23,02,59,11.60
2017,06,23,03,00,11.60
2017,06,23,03,01,11.60
2017,06,23,03,02,11.60
2017,06,23,03,03,11.60
2017,06,23,03,04,11.60
2017,06,23,03,05,11.60
2017,06,23,03,06,11.60
2017,06,23,03,07,11.60
2017,06,23,03,08,11.60
2017,06,23,03,09,11.60
2017,06,23,03,10,11.60
2017,06,23,03,11,11.60
2017,06,23,03,12,11.60
2017,06,23,03,13,11.60
2017,06,23,03,14,11.60
2017,06,23,03,15,11.40
2017,06,23,03,16,11.40
2017,06,23,03,17,11.40
2017,06,23,03,18,11.40
2017,06,23,03,19,11.40
2017,06,23,03,20,11.30
2017,06,23,03,21,11.30
2017,06,23,03,22,11.20
2017,06,23,03,23,11.20
2017,06,23,03,24,11.20
2017,06,23,03,25,11.20
2017,06,23,03,26,11.20
2017,06,23,03,27,11.20
2017,06,23,03,28,11.20
2017,06,23,03,29,11.20
2017,06,23,03,30,11.20
2017,06,23,03,31,11.10
2017,06,23,03,32,11.10
2017,06,23,03,33,11.10
2017,06,23,03,34,11.10
2017,06,23,03,35,11.10
2017,06,23,03,36,11.10
2017,06,23,03,37,11.10
2017,06,23,03,38,11.10
2017,06,23,03,39,11.10
2017,06,23,03,40,11.10
2017,06,23,03,41,11.10
2017,06,23,03,42,11.10
2017,06,23,03,43,11.10
2017,06,23,03,44,11.10
2017,06,23,03,45,11.10
2017,06,23,03,46,11.10
2017,06,23,03,47,11.10
2017,06,23,03,48,11.10
2017,06,23,03,49,11.10
2017,06,23,03,50,11.10
2017,06,23,03,51,11.00
2017,06,23,03,52,11.00
2017,06,23,03,53,11.10
2017,06,23,03,54,11.10
2017,06,23,03,55,11.10
2017,06,23,03,56,11.00
2017,06,23,03,57,10.90
2017,06,23,03,58,10.90
2017,06,23,03,59,10.90
2017,06,23,04,00,10.90
2017,06,23,04,01,10.90
2017,06,23,04,02,10.90
2017,06,23,04,03,10.90
2017,06,23,04,04,10.80
2017,06,23,04,05,10.80
2017,06,23,04,06,10.80
2017,06,23,04,07,10.70
2017,06,23,04,08,10.70
2017,06,23,04,09,10.70
2017,06,23,04,10,10.70
2017,06,23,04,11,10.60
2017,06,23,04,12,10.60
2017,06,23,04,13,10.60
2017,06,23,04,14,10.60
2017,06,23,04,15,10.60
2017,06,23,04,16,10.60
2017,06,23,04,17,10.60
2017,06,23,04,18,10.60
2017,06,23,04,19,10.50
2017,06,23,04,20,10.40
2017,06,23,04,21,10.40
2017,06,23,04,22,10.30
2017,06,23,04,23,10.30
2017,06,23,04,24,10.20
2017,06,23,04,25,10.20
2017,06,23,04,26,10.20
2017,06,23,04,27,10.20
2017,06,23,04,28,10.20
2017,06,23,04,29,10.20
2017,06,23,04,30,10.10
2017,06,23,04,31,10.10
2017,06,23,04,32,10.10
2017,06,23,04,33,10.10
2017,06,23,04,34,10.10
2017,06,23,04,35,10.10
2017,06,23,04,36,10.10
2017,06,23,04,37,10.10
2017,06,23,04,38,10.10
2017,06,23,04,39,10.10
2017,06,23,04,40,10.10
2017,06,23,04,41,10.10
2017,06,23,04,42,10.10
2017,06,23,04,43,10.10
2017,06,23,04,44,10.10
2017,06,23,04,45,10.10
2017,06,23,04,46,10.10
2017,06,23,04,47,10.10
2017,06,23,04,48,10.10
2017,06,23,04,49,10.10
2017,06,23,04,50,10.10
2017,06,23,04,51,10.10
2017,06,23,04,52,10.10
2017,06,23,04,53,10.10
2017,06,23,04,54,10.10
2017,06,23,04,55,10.10
2017,06,23,04,56,10.10
2017,06,23,04,57,10.10
2017,06,23,04,58,10.10
2017,06,23,04,59,10.10
2017,06,23,05,00,10.10
2017,06,23,05,01,10.10
2017,06,23,05,02,10.10
2017,06,23,05,03,10.10
2017,06,23,05,04,10.10
2017,06,23,05,05,10.10
2017,06,23,05,06,10.10
2017,06,23,05,07,10.10
2017,06,23,05,08,10.10
2017,06,23,05,09,10.10
2017,06,23,05,10,10.10
2017,06,23,05,11,10.10
2017,06,23,05,12,10.10
2017,06,23,05,13,10.00
2017,06,23,05,14,9.90
2017,06,23,05,15,9.90
2017,06,23,05,16,9.90
2017,06,23,05,17,9.80
2017,06,23,05,18,9.80
2017,06,23,05,19,9.80
2017,06,23,05,20,9.70
2017,06,23,05,21,9.70
2017,06,23,05,22,9.70
2017,06,23,05,23,9.70
2017,06,23,05,24,9.70
2017,06,23,05,25,9.70
2017,06,23,05,26,9.70
2017,06,23,05,27,9.70
2017,06,23,05,28,9.70
2017,06,23,05,29,9.70
2017,06,23,05,30,9.70
2017,06,23,05,31,9.80
2017,06,23,05,32,9.80
2017,06,23,05,33,9.80
2017,06,23,05,34,9.80
2017,06,23,05,35,9.80
2017,06,23,05,36,9.80
2017,06,23,05,37,9.80
2017,06,23,05,38,9.80
2017,06,23,05,39,9.80
2017,06,23,05,40,9.70
2017,06,23,05,41,9.70
2017,06,23,05,42,9.80
2017,06,23,05,43,9.80
2017,06,23,05,44,9.90
2017,06,23,05,45,10.00
2017,06,23,05,46,10.10
2017,06,23,05,47,10.10
2017,06,23,05,48,10.20
2017,06,23,05,49,10.20
2017,06,23,05,50,10.20
2017,06,23,05,51,10.20
2017,06,23,05,52,10.30
2017,06,23,05,53,10.30
2017,06,23,05,54,10.30
2017,06,23,05,55,10.30
2017,06,23,05,56,10.30
2017,06,23,05,57,10.30
2017,06,23,05,58,10.30
2017,06,23,05,59,10.30
2017,06,23,06,00,10.30
2017,06,23,06,01,10.30
2017,06,23,06,02,10.30
2017,06,23,06,03,10.40
2017,06,23,06,04,10.40
2017,06,23,06,05,10.40
2017,06,23,06,06,10.50
2017,06,23,06,07,10.60
2017,06,23,06,08,10.60
2017,06,23,06,09,10.60
2017,06,23,06,10,10.60
2017,06,23,06,11,10.60
2017,06,23,06,12,10.70
2017,06,23,06,13,10.80
2017,06,23,06,14,10.80
2017,06,23,06,15,10.90
2017,06,23,06,16,10.90
2017,06,23,06,17,11.00
2017,06,23,06,18,11.10
2017,06,23,06,19,11.10
2017,06,23,06,20,11.20
2017,06,23,06,21,11.20
2017,06,23,06,22,11.30
2017,06,23,06,23,11.30
2017,06,23,06,24,11.40
2017,06,23,06,25,11.40
2017,06,23,06,26,11.40
2017,06,23,06,27,11.50
2017,06,23,06,28,11.60
2017,06,23,06,29,11.60
2017,06,23,06,30,11.60
2017,06,23,06,31,11.70
2017,06,23,06,32,11.70
2017,06,23,06,33,11.70
2017,06,23,06,34,11.80
2017,06,23,06,35,11.80
2017,06,23,06,36,11.80
2017,06,23,06,37,11.80
2017,06,23,06,38,11.80
2017,06,23,06,39,11.90
2017,06,23,06,40,12.00
2017,06,23,06,41,12.00
2017,06,23,06,42,12.10
2017,06,23,06,43,12.10
2017,06,23,06,44,12.20
2017,06,23,06,45,12.20
2017,06,23,06,46,12.30
2017,06,23,06,47,12.30
2017,06,23,06,48,12.40
2017,06,23,06,49,12.50
2017,06,23,06,50,12.60
2017,06,23,06,51,12.70
2017,06,23,06,52,12.70
2017,06,23,06,53,12.80
2017,06,23,06,54,12.90
2017,06,23,06,55,13.00
2017,06,23,06,56,13.00
2017,06,23,06,57,13.10
2017,06,23,06,58,13.20
2017,06,23,06,59,13.30
2017,06,23,07,00,13.30
2017,06,23,07,01,13.40
2017,06,23,07,02,13.50
2017,06,23,07,03,13.50
2017,06,23,07,04,13.60
2017,06,23,07,05,13.60
2017,06,23,07,06,13.70
2017,06,23,07,07,13.80
2017,06,23,07,08,13.90
2017,06,23,07,09,13.90
2017,06,23,07,10,14.00
2017,06,23,07,11,14.10
2017,06,23,07,12,14.10
2017,06,23,07,13,14.20
2017,06,23,07,14,14.20
2017,06,23,07,15,14.20
2017,06,23,07,16,14.30
2017,06,23,07,17,14.30
2017,06,23,07,18,14.40
2017,06,23,07,19,14.40
2017,06,23,07,20,14.50
2017,06,23,07,21,14.50
2017,06,23,07,22,14.60
2017,06,23,07,23,14.60
2017,06,23,07,24,14.70
2017,06,23,07,25,14.80
2017,06,23,07,26,14.80
2017,06,23,07,27,14.90
2017,06,23,07,28,14.90
2017,06,23,07,29,15.00
2017,06,23,07,30,15.10
2017,06,23,07,31,15.10
2017,06,23,07,32,15.20
2017,06,23,07,33,15.30
2017,06,23,07,34,15.30
2017,06,23,07,35,15.30
2017,06,23,07,36,15.30
2017,06,23,07,37,15.30
2017,06,23,07,38,15.30
2017,06,23,07,39,15.30
2017,06,23,07,40,15.40
2017,06,23,07,41,15.40
2017,06,23,07,42,15.40
2017,06,23,07,43,15.50
2017,06,23,07,44,15.50
2017,06,23,07,45,15.50
2017,06,23,07,46,15.50
2017,06,23,07,47,15.60
2017,06,23,07,48,15.60
2017,06,23,07,49,15.70
2017,06,23,07,50,15.70
2017,06,23,07,51,15.80
2017,06,23,07,52,15.80
2017,06,23,07,53,15.80
2017,06,23,07,54,15.90
2017,06,23,07,55,15.90
2017,06,23,07,56,16.00
2017,06,23,07,57,16.10
2017,06,23,07,58,16.10
2017,06,23,07,59,16.20
2017,06,23,08,00,16.30
2017,06,23,08,01,16.30
2017,06,23,08,02,16.40
2017,06,23,08,03,16.40
2017,06,23,08,04,16.40
2017,06,23,08,05,16.40
2017,06,23,08,06,16.40
2017,06,23,08,07,16.40
2017,06,23,08,08,16.40
2017,06,23,08,09,16.50
2017,06,23,08,10,16.60
2017,06,23,08,11,16.60
2017,06,23,08,12,16.60
2017,06,23,08,13,16.70
2017,06,23,08,14,16.70
2017,06,23,08,15,16.70
2017,06,23,08,16,16.80
2017,06,23,08,17,16.80
2017,06,23,08,18,16.90
2017,06,23,08,19,16.90
2017,06,23,08,20,16.90
2017,06,23,08,21,17.00
2017,06,23,08,22,17.00
2017,06,23,08,23,17.00
2017,06,23,08,24,17.00
2017,06,23,08,25,17.00
2017,06,23,08,26,17.00
2017,06,23,08,27,17.00
2017,06,23,08,28,17.00
2017,06,23,08,29,17.10
2017,06,23,08,30,17.10
2017,06,23,08,31,17.20
2017,06,23,08,32,17.30
2017,06,23,08,33,17.30
2017,06,23,08,34,17.40
2017,06,23,08,35,17.40
2017,06,23,08,36,17.50
2017,06,23,08,37,17.60
2017,06,23,08,38,17.70
2017,06,23,08,39,17.80
2017,06,23,08,40,17.90
2017,06,23,08,41,18.00
2017,06,23,08,42,18.10
2017,06,23,08,43,18.20
2017,06,23,08,44,18.30
2017,06,23,08,45,18.40
2017,06,23,08,46,18.50
2017,06,23,08,47,18.60
2017,06,23,08,48,18.70
2017,06,23,08,49,18.70
2017,06,23,08,50,18.80
2017,06,23,08,51,18.80
2017,06,23,08,52,18.70
2017,06,23,08,53,18.70
2017,06,23,08,54,18.80
2017,06,23,08,55,18.90
2017,06,23,08,56,19.00
2017,06,23,08,57,19.10
2017,06,23,08,58,19.10
2017,06,23,08,59,19.30
2017,06,23,09,00,19.30
2017,06,23,09,01,19.30
2017,06,23,09,02,19.40
2017,06,23,09,03,19.40
2017,06,23,09,04,19.50
2017,06,23,09,05,19.40
2017,06,23,09,06,19.40
2017,06,23,09,07,19.40
2017,06,23,09,08,19.40
2017,06,23,09,09,19.40
2017,06,23,09,10,19.30
2017,06,23,09,11,19.30
2017,06,23,09,12,19.30
2017,06,23,09,13,19.30
2017,06,23,09,14,19.30
2017,06,23,09,15,19.30
2017,06,23,09,16,19.30
2017,06,23,09,17,19.40
2017,06,23,09,18,19.40
2017,06,23,09,19,19.40
2017,06,23,09,20,19.40
2017,06,23,09,21,19.40
2017,06,23,09,22,19.40
2017,06,23,09,23,19.50
2017,06,23,09,24,19.50
2017,06,23,09,25,19.50
2017,06,23,09,26,19.60
2017,06,23,09,27,19.60
2017,06,23,09,28,19.60
2017,06,23,09,29,19.60
2017,06,23,09,30,19.70
2017,06,23,09,31,19.70
2017,06,23,09,32,19.70
2017,06,23,09,33,19.70
2017,06,23,09,34,19.70
2017,06,23,09,35,19.70
2017,06,23,09,36,19.60
2017,06,23,09,37,19.60
2017,06,23,09,38,19.60
2017,06,23,09,39,19.60
2017,06,23,09,40,19.60
2017,06,23,09,41,19.60
2017,06,23,09,42,19.60
2017,06,23,09,43,19.50
2017,06,23,09,44,19.50
2017,06,23,09,45,19.50
2017,06,23,09,46,19.50
2017,06,23,09,47,19.50
2017,06,23,09,48,19.50
2017,06,23,09,49,19.40
2017,06,23,09,50,19.40
2017,06,23,09,51,19.50
2017,06,23,09,52,19.50
2017,06,23,09,53,19.50
2017,06,23,09,54,19.50
2017,06,23,09,55,19.40
2017,06,23,09,56,19.40
2017,06,23,09,57,19.40
2017,06,23,09,58,19.40
2017,06,23,09,59,19.40
2017,06,23,10,00,19.40
2017,06,23,10,01,19.40
2017,06,23,10,02,19.40
2017,06,23,10,03,19.40
2017,06,23,10,04,19.40
2017,06,23,10,05,19.40
2017,06,23,10,06,19.40
2017,06,23,10,07,19.40
2017,06,23,10,08,19.40
2017,06,23,10,09,19.40
2017,06,23,10,10,19.40
2017,06,23,10,11,19.50
2017,06,23,10,12,19.50
2017,06,23,10,13,19.50
2017,06,23,10,14,19.60
2017,06,23,10,15,19.50
2017,06,23,10,16,19.60
2017,06,23,10,17,19.60
2017,06,23,10,18,19.60
2017,06,23,10,19,19.60
2017,06,23,10,20,19.60
2017,06,23,10,21,19.60
2017,06,23,10,22,19.60
2017,06,23,10,23,19.60
2017,06,23,10,24,19.60
2017,06,23,10,25,19.60
2017,06,23,10,26,19.60
2017,06,23,10,27,19.70
2017,06,23,10,28,19.70
2017,06,23,10,29,19.70
2017,06,23,10,30,19.70
2017,06,23,10,31,19.70
2017,06,23,10,32,19.70
2017,06,23,10,33,19.80
2017,06,23,10,34,19.90
2017,06,23,10,35,19.90
2017,06,23,10,36,19.90
2017,06,23,10,37,19.90
2017,06,23,10,38,20.00
2017,06,23,10,39,20.00
2017,06,23,10,40,19.90
2017,06,23,10,41,19.90
2017,06,23,10,42,19.90
2017,06,23,10,43,19.90
2017,06,23,10,44,20.00
2017,06,23,10,45,20.10
2017,06,23,10,46,20.10
2017,06,23,10,47,20.10
2017,06,23,10,48,20.10
2017,06,23,10,49,20.10
2017,06,23,10,50,20.00
2017,06,23,10,51,19.90
2017,06,23,10,52,20.00
2017,06,23,10,53,20.10
2017,06,23,10,54,20.10
2017,06,23,10,55,20.10
2017,06,23,10,56,20.10
2017,06,23,10,57,20.10
2017,06,23,10,58,20.10
2017,06,23,10,59,20.10
2017,06,23,11,00,20.10
2017,06,23,11,01,20.10
2017,06,23,11,02,20.20
2017,06,23,11,03,20.20
2017,06,23,11,04,20.20
2017,06,23,11,05,20.10
2017,06,23,11,06,20.10
2017,06,23,11,07,20.20
2017,06,23,11,08,20.20
2017,06,23,11,09,20.20
2017,06,23,11,10,20.20
2017,06,23,11,11,20.20
2017,06,23,11,12,20.20
2017,06,23,11,13,20.20
2017,06,23,11,14,20.20
2017,06,23,11,15,20.20
2017,06,23,11,16,20.20
2017,06,23,11,17,20.20
2017,06,23,11,18,20.30
2017,06,23,11,19,20.30
2017,06,23,11,20,20.40
2017,06,23,11,21,20.40
2017,06,23,11,22,20.40
2017,06,23,11,23,20.40
2017,06,23,11,24,20.40
2017,06,23,11,25,20.40
2017,06,23,11,26,20.50
2017,06,23,11,27,20.50
2017,06,23,11,28,20.50
2017,06,23,11,29,20.50
2017,06,23,11,30,20.60
2017,06,23,11,31,20.60
2017,06,23,11,32,20.70
2017,06,23,11,33,20.70
2017,06,23,11,34,20.80
2017,06,23,11,35,20.80
2017,06,23,11,36,20.80
2017,06,23,11,37,20.80
2017,06,23,11,38,20.90
2017,06,23,11,39,21.00
2017,06,23,11,40,21.00
2017,06,23,11,41,21.00
2017,06,23,11,42,21.00
2017,06,23,11,43,21.00
2017,06,23,11,44,21.10
2017,06,23,11,45,21.10
2017,06,23,11,46,21.10
2017,06,23,11,47,21.10
2017,06,23,11,48,21.30
2017,06,23,11,49,21.30
2017,06,23,11,50,21.40
2017,06,23,11,51,21.50
2017,06,23,11,52,21.60
2017,06,23,11,53,21.60
2017,06,23,11,54,21.60
2017,06,23,11,55,21.60
2017,06,23,11,56,21.60
2017,06,23,11,57,21.60
2017,06,23,11,58,21.70
2017,06,23,11,59,21.70
2017,06,23,12,00,21.60
2017,06,23,12,01,21.60
2017,06,23,12,02,21.60
2017,06,23,12,03,21.60
2017,06,23,12,04,21.60
2017,06,23,12,05,21.60
2017,06,23,12,06,21.70
2017,06,23,12,07,21.70
2017,06,23,12,08,21.80
2017,06,23,12,09,21.90
2017,06,23,12,10,21.90
2017,06,23,12,11,22.00
2017,06,23,12,12,22.00
2017,06,23,12,13,22.00
2017,06,23,12,14,22.00
2017,06,23,12,15,21.90
2017,06,23,12,16,21.90
2017,06,23,12,17,21.90
2017,06,23,12,18,21.80
2017,06,23,12,19,21.80
2017,06,23,12,20,21.70
2017,06,23,12,21,21.70
2017,06,23,12,22,21.70
2017,06,23,12,23,21.70
2017,06,23,12,24,21.60
2017,06,23,12,25,21.60
2017,06,23,12,26,21.60
2017,06,23,12,27,21.50
2017,06,23,12,28,21.40
2017,06,23,12,29,21.60
2017,06,23,12,30,21.40
2017,06,23,12,31,21.60
2017,06,23,12,32,21.50
2017,06,23,12,33,21.40
2017,06,23,12,34,21.30
2017,06,23,12,35,21.30
2017,06,23,12,36,21.30
2017,06,23,12,37,21.40
2017,06,23,12,38,21.50
2017,06,23,12,39,21.60
2017,06,23,12,40,21.60
2017,06,23,12,41,21.60
2017,06,23,12,42,21.60
2017,06,23,12,43,21.60
2017,06,23,12,44,21.60
2017,06,23,12,45,21.60
2017,06,23,12,46,21.80
2017,06,23,12,47,21.90
2017,06,23,12,48,22.00
2017,06,23,12,49,22.10
2017,06,23,12,50,22.30
2017,06,23,12,51,22.40
2017,06,23,12,52,22.50
2017,06,23,12,53,22.50
2017,06,23,12,54,22.50
2017,06,23,12,55,22.50
2017,06,23,12,56,22.50
2017,06,23,12,57,22.40
2017,06,23,12,58,22.40
2017,06,23,12,59,22.50
2017,06,23,13,00,22.50
2017,06,23,13,01,22.50
2017,06,23,13,02,22.50
2017,06,23,13,03,22.50
2017,06,23,13,04,22.50
2017,06,23,13,05,22.50
2017,06,23,13,06,22.50
2017,06,23,13,07,22.50
2017,06,23,13,08,22.50
2017,06,23,13,09,22.40
2017,06,23,13,10,22.40
2017,06,23,13,11,22.40
2017,06,23,13,12,22.40
2017,06,23,13,13,22.40
2017,06,23,13,14,22.30
2017,06,23,13,15,22.30
2017,06,23,13,16,22.30
2017,06,23,13,17,22.30
2017,06,23,13,18,22.30
2017,06,23,13,19,22.20
2017,06,23,13,20,22.20
2017,06,23,13,21,22.20
2017,06,23,13,22,22.20
2017,06,23,13,23,22.20
2017,06,23,13,24,22.10
2017,06,23,13,25,22.00
2017,06,23,13,26,21.80
2017,06,23,13,27,21.60
2017,06,23,13,28,21.60
2017,06,23,13,29,21.60
2017,06,23,13,30,21.60
2017,06,23,13,31,21.40
2017,06,23,13,32,21.40
2017,06,23,13,33,21.30
2017,06,23,13,34,21.30
2017,06,23,13,35,21.40
2017,06,23,13,36,21.40
2017,06,23,13,37,21.40
2017,06,23,13,38,21.40
2017,06,23,13,39,21.40
2017,06,23,13,40,21.40
2017,06,23,13,41,21.40
2017,06,23,13,42,21.40
2017,06,23,13,43,21.40
2017,06,23,13,44,21.40
2017,06,23,13,45,21.40
2017,06,23,13,46,21.50
2017,06,23,13,47,21.60
2017,06,23,13,48,21.60
2017,06,23,13,49,21.60
2017,06,23,13,50,21.50
2017,06,23,13,51,21.50
2017,06,23,13,52,21.60
2017,06,23,13,53,21.70
2017,06,23,13,54,21.70
2017,06,23,13,55,21.80
2017,06,23,13,56,21.90
2017,06,23,13,57,22.00
2017,06,23,13,58,22.00
2017,06,23,13,59,22.10
2017,06,23,14,00,22.10
2017,06,23,14,01,22.00
2017,06,23,14,02,22.00
2017,06,23,14,03,22.10
2017,06,23,14,04,22.20
2017,06,23,14,05,22.10
2017,06,23,14,06,22.10
2017,06,23,14,07,22.10
2017,06,23,14,08,22.20
2017,06,23,14,09,22.30
2017,06,23,14,10,22.40
2017,06,23,14,11,22.50
2017,06,23,14,12,22.50
2017,06,23,14,13,22.50
2017,06,23,14,14,22.50
2017,06,23,14,15,22.30
2017,06,23,14,16,22.30
2017,06,23,14,17,22.30
2017,06,23,14,18,22.30
2017,06,23,14,19,22.30
2017,06,23,14,20,22.40
2017,06,23,14,21,22.50
2017,06,23,14,22,22.60
2017,06,23,14,23,22.70
2017,06,23,14,24,22.70
2017,06,23,14,25,22.80
2017,06,23,14,26,22.70
2017,06,23,14,27,22.80
2017,06,23,14,28,22.90
2017,06,23,14,29,22.90
2017,06,23,14,30,22.90
2017,06,23,14,31,22.90
2017,06,23,14,32,22.90
2017,06,23,14,33,22.90
2017,06,23,14,34,22.90
2017,06,23,14,35,22.90
2017,06,23,14,36,22.80
2017,06,23,14,37,22.70
2017,06,23,14,38,22.70
2017,06,23,14,39,22.70
2017,06,23,14,40,22.80
2017,06,23,14,41,22.90
2017,06,23,14,42,22.80
2017,06,23,14,43,22.80
2017,06,23,14,44,22.70
2017,06,23,14,45,22.60
2017,06,23,14,46,22.60
2017,06,23,14,47,22.60
2017,06,23,14,48,22.70
2017,06,23,14,49,22.80
2017,06,23,14,50,22.80
2017,06,23,14,51,22.90
2017,06,23,14,52,22.90
2017,06,23,14,53,22.90
2017,06,23,14,54,23.00
2017,06,23,14,55,23.10
2017,06,23,14,56,23.10
2017,06,23,14,57,23.10
2017,06,23,14,58,23.10
2017,06,23,14,59,23.20
2017,06,23,15,00,23.30
2017,06,23,15,01,23.30
2017,06,23,15,02,23.30
2017,06,23,15,03,23.30
2017,06,23,15,04,23.20
2017,06,23,15,05,23.20
2017,06,23,15,06,23.30
2017,06,23,15,07,23.30
2017,06,23,15,08,23.40
2017,06,23,15,09,23.60
2017,06,23,15,10,23.70
2017,06,23,15,11,23.70
2017,06,23,15,12,23.60
2017,06,23,15,13,23.60
2017,06,23,15,14,23.50
2017,06,23,15,15,23.40
2017,06,23,15,16,23.40
2017,06,23,15,17,23.40
2017,06,23,15,18,23.50
2017,06,23,15,19,23.60
2017,06,23,15,20,23.60
2017,06,23,15,21,23.70
2017,06,23,15,22,23.70
2017,06,23,15,23,23.70
2017,06,23,15,24,23.60
2017,06,23,15,25,23.60
2017,06,23,15,26,23.60
2017,06,23,15,27,23.60
2017,06,23,15,28,23.70
2017,06,23,15,29,23.70
2017,06,23,15,30,23.70
2017,06,23,15,31,23.70
2017,06,23,15,32,23.70
2017,06,23,15,33,23.70
2017,06,23,15,34,23.70
2017,06,23,15,35,23.70
2017,06,23,15,36,23.70
2017,06,23,15,37,23.70
2017,06,23,15,38,23.70
2017,06,23,15,39,23.70
2017,06,23,15,40,23.70
2017,06,23,15,41,23.60
2017,06,23,15,42,23.60
2017,06,23,15,43,23.50
2017,06,23,15,44,23.50
2017,06,23,15,45,23.50
2017,06,23,15,46,23.40
2017,06,23,15,47,23.40
2017,06,23,15,48,23.50
2017,06,23,15,49,23.60
2017,06,23,15,50,23.70
2017,06,23,15,51,23.70
2017,06,23,15,52,23.70
2017,06,23,15,53,23.80
2017,06,23,15,54,23.80
2017,06,23,15,55,23.80
2017,06,23,15,56,23.80
2017,06,23,15,57,23.70
2017,06,23,15,58,23.70
2017,06,23,15,59,23.70
2017,06,23,16,00,23.70
2017,06,23,16,01,23.70
2017,06,23,16,02,23.60
2017,06,23,16,03,23.60
2017,06,23,16,04,23.50
2017,06,23,16,05,23.50
2017,06,23,16,06,23.60
2017,06,23,16,07,23.60
2017,06,23,16,08,23.60
2017,06,23,16,09,23.70
2017,06,23,16,10,23.70
2017,06,23,16,11,23.80
2017,06,23,16,12,23.90
2017,06,23,16,13,24.00
2017,06,23,16,14,24.10
2017,06,23,16,15,24.10
2017,06,23,16,16,24.10
2017,06,23,16,17,24.10
2017,06,23,16,18,24.10
2017,06,23,16,19,24.10
2017,06,23,16,20,24.10
2017,06,23,16,21,24.10
2017,06,23,16,22,24.10
2017,06,23,16,23,24.10
2017,06,23,16,24,23.90
2017,06,23,16,25,23.80
2017,06,23,16,26,23.70
2017,06,23,16,27,23.70
2017,06,23,16,28,23.70
2017,06,23,16,29,23.60
2017,06,23,16,30,23.50
2017,06,23,16,31,23.40
2017,06,23,16,32,23.50
2017,06,23,16,33,23.50
2017,06,23,16,34,23.40
2017,06,23,16,35,23.50
2017,06,23,16,36,23.60
2017,06,23,16,37,23.50
2017,06,23,16,38,23.60
2017,06,23,16,39,23.60
2017,06,23,16,40,23.70
2017,06,23,16,41,23.70
2017,06,23,16,42,23.80
2017,06,23,16,43,23.80
2017,06,23,16,44,23.90
2017,06,23,16,45,23.90
2017,06,23,16,46,23.90
2017,06,23,16,47,23.90
2017,06,23,16,48,23.90
2017,06,23,16,49,23.90
2017,06,23,16,50,23.90
2017,06,23,16,51,23.90
2017,06,23,16,52,23.90
2017,06,23,16,53,24.10
2017,06,23,16,54,24.10
2017,06,23,16,55,24.10
2017,06,23,16,56,24.10
2017,06,23,16,57,24.10
2017,06,23,16,58,24.10
2017,06,23,16,59,24.10
2017,06,23,17,00,24.20
2017,06,23,17,01,24.20
2017,06,23,17,02,24.10
2017,06,23,17,03,24.10
2017,06,23,17,04,24.10
2017,06,23,17,05,24.20
2017,06,23,17,06,24.30
2017,06,23,17,07,24.30
2017,06,23,17,08,24.30
2017,06,23,17,09,24.30
2017,06,23,17,10,24.30
2017,06,23,17,11,24.30
2017,06,23,17,12,24.20
2017,06,23,17,13,24.10
2017,06,23,17,14,24.10
2017,06,23,17,15,24.00
2017,06,23,17,16,23.90
2017,06,23,17,17,23.70
2017,06,23,17,18,23.70
2017,06,23,17,19,23.60
2017,06,23,17,20,23.50